Location: Bernadets
(43.3537°N, 0.3167°E)
Time: 03:49:56
(UTC+00:00)

NOSS 3-1 (A) - Pass Details

Date: 24 October 2021
Orbit: 721 x 1491 km, 63.4° (Epoch: 22 November)

Event Time Altitude Azimuth Distance (km) Brightness Sun altitude
Rises 17:46:27 0° 191° (S) 3,150 6.4 -8.9°
Reaches altitude 10° 17:48:49 10° 183° (S) 2,273 5.6 -9.3°
Maximum altitude 17:53:35 39° 115° (ESE) 1,203 3.6 -10.1°
Drops below altitude 10° 17:59:03 10° 48° (NE) 2,610 5.3 -11.1°
Enters shadow 17:59:58 - 46° (NE) 2,946 5.6 -11.3°
